Date String (YYYY-MM-DD hh:mm:ss) UTC,Instrument flags,absolute air pressure of the measurement (hPa),sample flow rate (lpm),inlet stack bypass flow (lpm),air temperature of the measurement (°C),ambient temperature measured by the external sensor (°C),aerosol sample conditioner tube jacket temperature (°C),OPC LED temperature (°C),internal box temperature (°C),relative humidity of the measurement (%),span deviation,mass concentration of particles derived from Lorenz-Mie calculation of OPC scattering (μg/m³),mass concentration of particles derived from Lorenz-Mie calculation of OPC scattering (μg/m³),mass concentration of particles derived from Lorenz-Mie calculation of OPC scattering (μg/m³)
DateTimeUTC,F1_M11,P_M11,Q1_M11,Q2_M11,T1_M11,T2_M11,T3_M11,T4_M11,T5_M11,U1_M11,ZSPAN_M11,X2_M11,X0_M11,X1_M11
2024-05-20 19:00:00,SystemResetWarning,0825.1,5.00,000.00,028.3,027.6,000.0,036.4,030.0,022.0,0001.6,0007.43,0020.04,0005.99
2024-05-20 19:01:00,SystemResetWarning,0825.0,5.00,000.00,028.3,027.6,000.0,036.5,030.0,021.6,0001.8,0007.38,0020.48,0005.99
2024-05-20 19:02:00,SystemResetWarning,0825.1,4.99,000.00,028.3,027.6,000.0,036.5,030.0,022.4,0001.7,0007.36,0021.40,0006.00
2024-05-20 19:03:00,SystemResetWarning,0825.0,4.99,000.00,028.3,027.6,000.0,036.5,030.0,021.7,0002.0,0007.36,0021.13,0006.00
2024-05-20 19:04:00,SystemResetWarning,0825.1,5.00,000.00,028.3,027.6,000.0,036.5,030.0,021.5,0002.3,0007.34,0020.70,0005.98
2024-05-20 19:05:00,SystemResetWarning,0825.0,5.01,000.00,028.3,027.7,000.0,036.5,030.1,021.5,0001.8,0007.29,0020.19,0005.94
2024-05-20 19:06:00,SystemResetWarning,0825.0,5.01,000.00,028.3,027.7,000.0,036.5,030.1,021.7,0002.2,0007.24,0020.02,0005.92
2024-05-20 19:07:00,SystemResetWarning,0825.0,5.00,000.00,028.3,027.7,000.0,036.6,030.1,021.4,0002.0,0007.27,0020.36,0005.93
2024-05-20 19:08:00,SystemResetWarning,0824.9,5.00,000.00,028.3,027.7,000.0,036.6,030.1,021.4,0001.7,0007.32,0020.46,0005.94
2024-05-20 19:09:00,SystemResetWarning,0824.9,5.00,000.00,028.4,027.7,000.0,036.6,030.1,021.3,0001.7,0007.35,0020.26,0005.99
2024-05-20 19:10:00,SystemResetWarning,0824.9,4.99,000.00,028.4,027.7,000.0,036.6,030.1,021.3,0001.4,0007.41,0019.05,0006.05
2024-05-20 19:11:00,SystemResetWarning,0824.9,4.99,000.00,028.4,027.7,000.0,036.6,030.1,021.4,0001.6,0007.48,0019.27,0006.11
2024-05-20 19:12:00,SystemResetWarning,0824.9,5.00,000.00,028.4,027.7,000.0,036.6,030.1,021.4,0001.8,0007.55,0019.84,0006.14
2024-05-20 19:13:00,SystemResetWarning,0824.9,5.01,000.00,028.4,027.7,000.0,036.6,030.2,021.6,0001.3,0007.64,0020.33,0006.19
2024-05-20 19:14:00,SystemResetWarning,0824.9,5.00,000.00,028.4,027.8,000.0,036.6,030.2,021.6,0000.8,0007.74,0021.37,0006.24
2024-05-20 19:15:00,SystemResetWarning,0824.9,5.01,000.00,028.4,027.8,000.0,036.7,030.2,021.9,0000.7,0007.75,0021.41,0006.26
2024-05-20 19:16:00,SystemResetWarning,0824.9,5.01,000.00,028.4,027.8,000.0,036.7,030.2,022.5,0000.7,0007.79,0021.32,0006.26
2024-05-20 19:17:00,SystemResetWarning,0824.9,5.00,000.00,028.5,027.8,000.0,036.7,030.2,022.2,0000.5,0007.84,0021.95,0006.26
2024-05-20 19:18:00,SystemResetWarning,0824.9,5.00,000.00,028.5,027.8,000.0,036.7,030.2,022.7,0000.6,0007.82,0022.61,0006.25
2024-05-20 19:19:00,SystemResetWarning,0824.9,5.00,000.00,028.5,027.8,000.0,036.7,030.2,021.8,0000.1,0007.78,0023.01,0006.21
2024-05-20 19:20:00,SystemResetWarning,0824.9,5.00,000.00,028.5,027.8,000.0,036.7,030.3,022.2,-000.6,0007.75,0022.67,0006.19
2024-05-20 19:21:00,SystemResetWarning,0824.9,5.01,000.00,028.5,027.9,000.0,036.7,030.3,022.0,-000.5,0007.68,0022.40,0006.13
2024-05-20 19:22:00,SystemResetWarning,0824.9,5.00,000.00,028.5,027.9,000.0,036.7,030.3,021.5,-000.4,0007.68,0022.24,0006.09
2024-05-20 19:23:00,SystemResetWarning,0824.9,5.00,000.00,028.5,027.9,000.0,036.8,030.3,021.7,-000.4,0007.73,0021.64,0006.09
2024-05-20 19:24:00,SystemResetWarning,0824.9,5.00,000.00,028.6,027.9,000.0,036.8,030.3,021.6,-000.5,0007.72,0020.59,0006.07
2024-05-20 19:25:00,SystemResetWarning,0824.8,5.00,000.00,028.6,027.9,000.0,036.8,030.3,021.8,0000.1,0007.70,0019.86,0006.09
2024-05-20 19:26:00,SystemResetWarning,0824.7,5.00,000.00,028.6,027.9,000.0,036.8,030.3,021.5,-000.0,0007.74,0020.77,0006.11
2024-05-20 19:27:00,SystemResetWarning,0824.7,5.01,000.00,028.6,027.9,000.0,036.8,030.3,021.4,-000.1,0007.81,0022.07,0006.17
2024-05-20 19:28:00,SystemResetWarning,0824.7,4.99,000.00,028.6,027.9,000.0,036.8,030.4,021.9,-000.1,0007.83,0022.97,0006.21
2024-05-20 19:29:00,SystemResetWarning,0824.7,5.00,000.00,028.6,028.0,000.0,036.8,030.4,021.6,-000.6,0007.88,0023.70,0006.23
2024-05-20 19:30:00,SystemResetWarning,0824.7,4.99,000.00,028.6,028.0,000.0,036.8,030.4,021.5,-000.1,0007.95,0022.77,0006.27
2024-05-20 19:31:00,SystemResetWarning,0824.7,5.00,000.00,028.7,028.0,000.0,036.8,030.4,021.9,0000.7,0008.00,0024.00,0006.30
2024-05-20 19:32:00,SystemResetWarning,0824.7,5.00,000.00,028.7,028.0,000.0,036.9,030.4,021.9,0000.7,0008.05,0024.59,0006.31
2024-05-20 19:33:00,SystemResetWarning,0824.6,5.00,000.00,028.7,028.0,000.0,036.9,030.4,021.7,0000.4,0008.06,0024.63,0006.31
2024-05-20 19:34:00,SystemResetWarning,0824.5,5.00,000.00,028.7,028.1,000.0,036.9,030.4,021.2,0000.2,0008.02,0024.61,0006.30
2024-05-20 19:35:00,SystemResetWarning,0824.5,4.99,000.00,028.7,028.1,000.0,036.9,030.5,021.7,0000.3,0008.06,0024.32,0006.33
2024-05-20 19:36:00,SystemResetWarning,0824.5,5.00,000.00,028.7,028.1,000.0,036.9,030.5,021.1,0000.3,0008.09,0024.67,0006.29
2024-05-20 19:37:00,SystemResetWarning,0824.5,4.99,000.00,028.7,028.1,000.0,036.9,030.5,021.2,0000.5,0008.08,0026.64,0006.23
2024-05-20 19:38:00,SystemResetWarning,0824.5,5.00,000.00,028.8,028.1,000.0,037.0,030.5,021.1,0000.6,0007.99,0026.35,0006.15
2024-05-20 19:39:00,SystemResetWarning,0824.5,5.01,000.00,028.8,028.1,000.0,037.0,030.5,021.2,0000.9,0007.99,0025.34,0006.10
2024-05-20 19:40:00,SystemResetWarning,0824.5,5.00,000.00,028.8,028.1,000.0,037.0,030.5,021.0,0001.6,0007.92,0024.85,0006.08
2024-05-20 19:41:00,SystemResetWarning,0824.4,5.00,000.00,028.8,028.1,000.0,037.0,030.5,021.0,0001.5,0007.92,0024.95,0006.10
2024-05-20 19:42:00,SystemResetWarning,0824.4,4.99,000.00,028.8,028.2,000.0,037.0,030.5,021.0,0001.1,0007.96,0024.94,0006.13
2024-05-20 19:43:00,SystemResetWarning,0824.4,5.00,000.00,028.8,028.2,000.0,037.0,030.6,021.5,0001.3,0008.05,0025.47,0006.17
2024-05-20 19:44:00,SystemResetWarning,0824.4,5.00,000.00,028.8,028.2,000.0,037.0,030.6,021.6,0001.4,0008.05,0028.17,0006.18
2024-05-20 19:45:00,SystemResetWarning,0824.4,5.00,000.00,028.9,028.2,000.0,037.0,030.6,021.2,0001.8,0008.06,0029.19,0006.17
2024-05-20 19:46:00,SystemResetWarning,0824.4,4.99,000.00,028.9,028.2,000.0,037.1,030.6,021.2,0002.1,0008.09,0030.53,0006.17
2024-05-20 19:47:00,SystemResetWarning,0824.3,4.99,000.00,028.9,028.2,000.0,037.1,030.6,020.8,0002.0,0008.13,0029.98,0006.23
2024-05-20 19:48:00,SystemResetWarning,0824.4,5.00,000.00,028.9,028.2,000.0,037.1,030.6,020.9,0001.8,0008.14,0027.93,0006.27
2024-05-20 19:49:00,SystemResetWarning,0824.3,5.00,000.00,028.9,028.3,000.0,037.1,030.6,021.5,0001.6,0008.14,0026.55,0006.29
2024-05-20 19:50:00,SystemResetWarning,0824.3,5.02,000.00,028.9,028.3,000.0,037.1,030.7,020.9,0001.5,0008.14,0026.26,0006.29
2024-05-20 19:51:00,SystemResetWarning,0824.3,5.00,000.00,028.9,028.3,000.0,037.1,030.7,021.2,0001.3,0008.13,0026.30,0006.27
2024-05-20 19:52:00,SystemResetWarning,0824.3,4.99,000.00,029.0,028.3,000.0,037.1,030.7,021.4,0001.2,0008.06,0026.39,0006.21
2024-05-20 19:53:00,SystemResetWarning,0824.3,4.99,000.00,029.0,028.3,000.0,037.2,030.7,021.0,0001.7,0007.99,0025.48,0006.11
2024-05-20 19:54:00,SystemResetWarning,0824.2,5.01,000.00,029.0,028.3,000.0,037.2,030.7,020.9,0002.1,0007.86,0024.84,0006.05
2024-05-20 19:55:00,SystemResetWarning,0824.3,5.00,000.00,029.0,028.4,000.0,037.2,030.7,020.6,0002.3,0007.82,0023.11,0006.03
2024-05-20 19:56:00,SystemResetWarning,0824.3,5.00,000.00,029.0,028.4,000.0,037.2,030.8,020.5,0002.6,0007.83,0022.31,0006.00
2024-05-20 19:57:00,SystemResetWarning,0824.4,5.00,000.00,029.0,028.4,000.0,037.2,030.8,020.5,0002.4,0007.73,0021.90,0005.93
2024-05-20 19:58:00,SystemResetWarning,0824.4,5.01,000.00,029.0,028.4,000.0,037.3,030.8,020.5,0002.4,0007.63,0022.29,0005.85
2024-05-20 19:59:00,SystemResetWarning,0824.4,5.00,000.00,029.1,028.4,000.0,037.3,030.8,020.5,0001.1,0007.59,0024.19,0005.77
